Temp
-19 -19 -19 -20 -21 -21 -22 -22 -23 -23 -23 -23 -24 -24 -25 -25 -25 -26 -26 -27 -27 -28 -28 -27 -27 -27 -27 -27 -26 -26 -26 -26 -25 -23 -20 -17 -16 -15 -14 -14 -14 -14 -14
-19 -19 -20 -20 -20 -20 -21 -21 -22 -22 -23 -24 -24 -24 -24 -25 -26 -26 -27 -27 -27 -27 -28 -28 -27 -27 -27 -26 -26 -26 -26 -26 -26 -26 -25 -23 -19 -16 -15 -14 -14 -14 -14
-18 -19 -19 -20 -20 -20 -20 -20 -20 -21 -22 -24 -24 -25 -25 -25 -26 -26 -27 -27 -27 -26 -27 -27 -27 -27 -26 -26 -26 -26 -26 -26 -26 -26 -26 -25 -22 -18 -17 -16 -17 -15 -14
-19 -18 -18 -19 -19 -19 -20 -20 -20 -20 -21 -22 -23 -24 -25 -25 -26 -26 -26 -27 -27 -27 -26 -26 -26 -26 -27 -27 -26 -26 -25 -26 -26 -26 -26 -25 -23 -21 -20 -20 -18 -15 -16
-18 -18 -18 -18 -19 -19 -20 -20 -20 -20 -20 -21 -22 -22 -24 -25 -26 -26 -26 -26 -27 -27 -27 -27 -27 -28 -28 -27 -27 -27 -26 -26 -26 -26 -25 -24 -23 -22 -21 -22 -18 -19 -17
-19 -19 -19 -19 -19 -19 -19 -20 -20 -20 -20 -20 -21 -22 -22 -24 -25 -25 -26 -27 -27 -27 -27 -27 -27 -28 -28 -28 -28 -27 -27 -26 -26 -26 -25 -24 -22 -22 -21 -20 -20 -19 -19
-19 -19 -19 -19 -19 -19 -19 -19 -20 -20 -20 -20 -20 -21 -21 -22 -23 -24 -25 -25 -25 -26 -26 -26 -26 -27 -27 -27 -26 -26 -26 -26 -26 -25 -24 -23 -21 -20 -20 -20 -20 -19 -19
-20 -20 -20 -20 -20 -19 -19 -19 -20 -20 -20 -20 -20 -21 -21 -21 -22 -22 -23 -24 -24 -25 -25 -26 -26 -26 -26 -26 -25 -25 -25 -25 -24 -24 -24 -22 -23 -23 -20 -19 -20 -20 -19
-20 -20 -20 -21 -21 -20 -20 -20 -20 -20 -20 -19 -20 -21 -21 -21 -22 -22 -22 -22 -23 -24 -24 -24 -24 -25 -25 -25 -25 -24 -25 -23 -23 -23 -23 -22 -22 -21 -21 -19 -20 -20 -20
-20 -21 -21 -21 -21 -21 -21 -21 -21 -21 -20 -19 -19 -20 -21 -21 -21 -22 -22 -22 -22 -23 -23 -23 -24 -24 -24 -24 -24 -23 -23 -23 -22 -22 -22 -21 -21 -21 -21 -20 -20 -21 -21
-21 -21 -21 -21 -22 -22 -21 -21 -21 -21 -21 -20 -20 -20 -20 -21 -21 -21 -22 -22 -22 -22 -23 -23 -23 -23 -23 -23 -23 -23 -23 -22 -22 -22 -21 -21 -21 -21 -21 -21 -21 -21 -20
-21 -21 -21 -21 -22 -22 -22 -21 -21 -21 -22 -22 -21 -21 -20 -20 -21 -21 -21 -22 -22 -22 -22 -22 -22 -23 -22 -23 -23 -22 -22 -22 -21 -21 -21 -21 -21 -21 -20 -20 -20 -20 -20
-20 -20 -21 -21 -22 -22 -22 -22 -21 -21 -21 -21 -21 -20 -20 -20 -20 -21 -21 -22 -22 -21 -21 -22 -23 -24 -23 -23 -22 -22 -22 -22 -22 -22 -22 -22 -22 -22 -21 -21 -21 -21 -21
-20 -20 -21 -21 -21 -21 -21 -21 -21 -20 -20 -20 -20 -20 -20 -20 -21 -21 -21 -21 -21 -21 -22 -22 -22 -23 -24 -25 -25 -25 -24 -24 -24 -24 -24 -24 -24 -24 -23 -23 -22 -21 -20
-20 -20 -20 -21 -21 -21 -21 -21 -21 -20 -20 -20 -20 -20 -20 -20 -20 -21 -21 -21 -21 -22 -23 -23 -23 -24 -24 -25 -25 -25 -25 -24 -25 -25 -25 -24 -24 -24 -24 -24 -23 -23 -22
-20 -20 -20 -20 -20 -20 -21 -21 -21 -21 -20 -20 -20 -20 -20 -20 -21 -21 -21 -21 -22 -23 -23 -23 -23 -25 -25 -25 -25 -25 -25 -25 -25 -25 -25 -25 -25 -25 -24 -24 -23 -23 -23
-20 -19 -20 -20 -20 -20 -20 -20 -21 -21 -20 -20 -20 -20 -20 -20 -21 -21 -21 -22 -22 -23 -23 -23 -24 -25 -25 -26 -26 -26 -26 -26 -25 -25 -25 -25 -25 -24 -24 -24 -24 -24 -24
-20 -19 -19 -20 -20 -20 -20 -20 -20 -20 -20 -20 -19 -20 -20 -20 -21 -21 -21 -22 -22 -22 -23 -23 -24 -25 -25 -26 -26 -26 -26 -26 -26 -26 -25 -25 -25 -25 -25 -25 -26 -26 -26
-19 -19 -19 -19 -19 -20 -20 -20 -20 -20 -20 -20 -19 -20 -20 -20 -21 -21 -22 -21 -21 -21 -22 -23 -23 -24 -25 -25 -26 -26 -26 -26 -26 -26 -25 -25 -25 -26 -26 -26 -26 -26 -26
-19 -19 -19 -19 -19 -19 -19 -20 -20 -20 -20 -20 -20 -20 -20 -20 -21 -21 -21 -21 -21 -21 -21 -22 -23 -23 -24 -24 -25 -25 -25 -25 -25 -25 -25 -25 -26 -26 -26 -26 -26 -26 -26
-19 -19 -19 -19 -19 -20 -19 -19 -20 -20 -20 -19 -20 -20 -20 -21 -21 -21 -21 -21 -21 -21 -21 -22 -22 -22 -22 -23 -23 -24 -24 -25 -25 -25 -25 -25 -25 -26 -25 -25 -26 -26 -25
-19 -19 -19 -19 -19 -19 -19 -19 -20 -19 -19 -20 -20 -20 -20 -20 -21 -21 -21 -20 -21 -21 -21 -21 -21 -22 -22 -22 -22 -23 -24 -24 -24 -24 -24 -25 -25 -25 -25 -25 -25 -25 -24
-19 -19 -19 -19 -19 -19 -19 -19 -19 -19 -19 -19 -20 -20 -20 -20 -20 -20 -20 -20 -20 -20 -21 -21 -21 -21 -21 -21 -22 -22 -23 -23 -23 -23 -24 -24 -25 -25 -24 -24 -24 -24 -24
-19 -19 -19 -19 -19 -19 -19 -19 -19 -19 -19 -20 -20 -20 -20 -20 -20 -20 -20 -20 -20 -20 -20 -21 -21 -21 -21 -21 -22 -22 -22 -22 -23 -23 -23 -23 -23 -24 -24 -24 -24 -24 -24
-19 -19 -19 -19 -19 -19 -19 -19 -19 -19 -19 -19 -19 -19 -20 -20 -20 -20 -20 -20 -20 -20 -20 -20 -21 -21 -21 -21 -21 -22 -22 -22 -22 -23 -23 -22 -22 -23 -23 -23 -24 -24 -24
-19 -19 -19 -19 -19 -19 -19 -19 -19 -19 -19 -19 -19 -19 -20 -20 -20 -20 -20 -20 -20 -20 -20 -20 -20 -21 -21 -21 -21 -21 -22 -22 -22 -22 -22 -22 -22 -22 -23 -23 -23 -23 -23
Height
5518 5508 5499 5487 5476 5463 5452 5440 5428 5418 5412 5406 5402 5399 5397 5395 5395 5396 5395 5394 5395 5398 5403 5407 5411 5416 5421 5426 5432 5437 5441 5445 5453 5459 5468 5482 5496 5516 5536 5554 5570 5584 5594
5521 5511 5502 5493 5482 5468 5456 5443 5431 5420 5411 5406 5401 5396 5394 5390 5391 5393 5391 5388 5388 5391 5396 5400 5405 5409 5414 5420 5426 5430 5435 5439 5445 5450 5450 5459 5471 5492 5516 5535 5545 5564 5577
5524 5515 5505 5496 5487 5474 5463 5451 5438 5426 5416 5409 5403 5398 5393 5389 5391 5392 5391 5387 5386 5389 5392 5396 5401 5405 5411 5415 5420 5424 5429 5434 5439 5442 5445 5448 5457 5476 5496 5512 5520 5543 5555
5528 5517 5507 5498 5489 5479 5469 5460 5449 5437 5425 5416 5407 5403 5397 5394 5394 5394 5393 5390 5388 5387 5390 5394 5399 5403 5407 5411 5416 5420 5425 5430 5434 5437 5440 5443 5450 5464 5480 5497 5508 5530 5539
5532 5522 5511 5501 5492 5483 5475 5466 5457 5448 5436 5425 5415 5409 5403 5399 5397 5396 5395 5393 5392 5392 5392 5394 5397 5400 5403 5408 5412 5416 5421 5426 5430 5433 5435 5440 5448 5461 5479 5492 5507 5511 5525
5537 5527 5516 5506 5496 5487 5479 5471 5464 5455 5447 5437 5427 5418 5411 5406 5404 5402 5401 5398 5396 5394 5395 5396 5398 5400 5403 5406 5409 5412 5418 5423 5428 5430 5433 5439 5452 5461 5472 5480 5488 5497 5512
5542 5532 5521 5511 5502 5493 5483 5476 5469 5461 5453 5446 5439 5430 5422 5417 5414 5410 5407 5405 5403 5401 5399 5399 5400 5402 5404 5407 5410 5415 5420 5423 5430 5433 5438 5444 5456 5465 5468 5474 5482 5493 5506
5549 5537 5525 5515 5506 5498 5489 5481 5474 5468 5461 5453 5447 5441 5434 5428 5424 5420 5418 5416 5413 5410 5408 5407 5407 5408 5409 5412 5413 5418 5423 5428 5430 5436 5442 5446 5453 5458 5463 5470 5473 5481 5493
5556 5542 5530 5519 5510 5502 5496 5488 5481 5475 5468 5460 5453 5450 5445 5439 5435 5432 5429 5426 5423 5419 5418 5416 5415 5414 5415 5418 5420 5424 5429 5432 5437 5443 5448 5451 5454 5456 5459 5463 5469 5477 5485
5562 5549 5537 5526 5517 5508 5501 5495 5489 5482 5474 5469 5462 5457 5453 5449 5443 5441 5438 5437 5434 5433 5429 5428 5427 5426 5423 5426 5428 5433 5437 5439 5443 5446 5450 5452 5453 5457 5460 5463 5467 5472 5479
5569 5558 5548 5536 5525 5516 5508 5502 5497 5492 5484 5477 5472 5467 5463 5456 5451 5450 5449 5447 5443 5441 5439 5438 5437 5436 5437 5435 5436 5437 5437 5438 5442 5445 5448 5451 5455 5457 5459 5463 5466 5471 5474
5578 5568 5559 5549 5538 5528 5519 5513 5508 5505 5499 5491 5485 5483 5476 5470 5465 5464 5461 5458 5453 5451 5449 5446 5444 5442 5441 5441 5440 5438 5439 5441 5442 5445 5448 5451 5454 5457 5459 5462 5464 5466 5470
5588 5580 5571 5562 5553 5545 5538 5530 5524 5519 5515 5509 5503 5498 5492 5486 5483 5479 5477 5472 5468 5465 5458 5452 5448 5446 5444 5444 5442 5441 5442 5442 5444 5444 5445 5448 5451 5454 5456 5458 5461 5463 5467
5598 5591 5583 5576 5568 5560 5554 5548 5542 5537 5531 5526 5520 5514 5508 5505 5500 5494 5490 5486 5482 5478 5471 5466 5460 5452 5447 5445 5443 5442 5442 5442 5443 5444 5446 5446 5446 5447 5449 5452 5455 5458 5460
5608 5602 5596 5589 5582 5576 5570 5564 5558 5552 5546 5541 5535 5530 5525 5521 5515 5510 5505 5500 5494 5488 5481 5475 5468 5460 5453 5449 5447 5447 5447 5446 5446 5448 5449 5448 5447 5445 5445 5445 5446 5447 5449
5618 5613 5607 5601 5595 5588 5582 5577 5572 5566 5561 5556 5550 5546 5541 5535 5530 5525 5520 5514 5507 5500 5495 5486 5476 5467 5461 5457 5455 5454 5454 5454 5454 5453 5452 5450 5448 5446 5445 5443 5443 5442 5442
5626 5622 5617 5612 5606 5600 5595 5589 5585 5581 5575 5570 5565 5560 5555 5550 5545 5540 5536 5530 5522 5515 5509 5498 5488 5478 5471 5468 5466 5465 5465 5465 5465 5464 5461 5456 5452 5448 5445 5443 5443 5444 5445
5634 5630 5626 5621 5617 5612 5607 5602 5597 5593 5589 5584 5579 5574 5569 5565 5561 5556 5551 5545 5539 5532 5522 5513 5503 5493 5485 5480 5478 5477 5478 5478 5477 5475 5471 5467 5462 5458 5456 5454 5453 5452 5452
5641 5638 5634 5630 5626 5622 5618 5613 5610 5606 5602 5598 5593 5589 5584 5579 5576 5572 5566 5563 5555 5547 5537 5528 5519 5509 5501 5494 5492 5492 5492 5493 5491 5490 5488 5485 5481 5479 5477 5475 5473 5473 5471
5648 5645 5641 5639 5635 5631 5628 5625 5621 5619 5615 5610 5607 5603 5596 5593 5591 5587 5582 5576 5570 5562 5554 5545 5536 5526 5518 5512 5509 5509 5509 5508 5508 5506 5505 5502 5500 5497 5495 5493 5491 5489 5488
5654 5652 5649 5646 5644 5640 5638 5636 5633 5630 5627 5624 5619 5613 5610 5608 5604 5599 5594 5589 5584 5578 5571 5562 5555 5547 5539 5533 5529 5527 5526 5525 5524 5522 5521 5518 5516 5514 5511 5509 5506 5503 5501
5659 5658 5656 5654 5652 5650 5647 5646 5644 5642 5639 5634 5629 5626 5623 5619 5615 5611 5607 5602 5597 5592 5587 5580 5573 5567 5560 5554 5550 5547 5545 5543 5540 5538 5536 5535 5533 5531 5528 5525 5522 5519 5518
5664 5663 5663 5661 5660 5658 5657 5655 5654 5652 5649 5644 5640 5638 5634 5631 5627 5623 5619 5614 5610 5606 5601 5596 5590 5585 5579 5574 5570 5565 5564 5561 5559 5556 5553 5551 5549 5547 5544 5542 5539 5536 5534
5668 5668 5668 5667 5666 5665 5664 5663 5662 5661 5658 5654 5651 5648 5645 5642 5639 5635 5631 5626 5623 5619 5615 5611 5606 5601 5596 5591 5587 5583 5580 5578 5576 5574 5571 5568 5566 5563 5561 5559 5556 5554 5550
5671 5671 5672 5672 5672 5672 5671 5670 5670 5668 5666 5664 5661 5658 5656 5653 5650 5646 5642 5638 5635 5631 5628 5624 5620 5616 5612 5608 5604 5600 5596 5593 5591 5589 5587 5584 5582 5579 5576 5574 5571 5568 5565
5673 5674 5675 5676 5677 5676 5676 5676 5676 5675 5674 5672 5670 5668 5666 5663 5660 5657 5654 5650 5646 5643 5639 5636 5633 5629 5626 5623 5619 5615 5612 5608 5606 5604 5601 5598 5596 5594 5591 5589 5586 5583 5579
Wind_Speed
39 38 40 43 42 42 40 39 37 25 19 17 17 20 24 23 23 18 19 26 33 40 40 36 37 37 38 39 36 33 34 38 43 57 74 91 103 106 104 101 97 91 86
39 40 36 41 43 45 46 40 40 32 26 19 18 16 15 13 14 10 14 17 22 25 30 34 33 33 32 29 28 31 28 26 25 34 47 60 80 95 102 104 102 95 92
39 39 36 33 36 43 48 49 42 39 29 27 20 16 13 7 1 3 9 9 10 16 19 23 26 26 25 25 25 28 31 27 23 24 31 40 56 76 83 89 85 93 95
38 39 38 35 32 35 39 45 49 46 41 36 27 23 20 11 3 2 7 7 9 2 13 16 19 21 22 24 25 26 26 28 26 22 27 35 40 54 66 70 68 91 89
44 43 41 37 32 31 34 40 42 42 44 41 37 34 27 21 15 8 6 7 6 4 4 6 7 11 17 20 22 23 24 26 25 19 25 35 40 36 30 50 36 54 76
46 46 47 44 40 33 32 33 36 34 39 40 39 38 37 32 25 23 19 14 7 4 4 5 6 8 9 6 10 17 20 21 19 18 26 40 38 22 29 31 44 46 58
45 45 45 43 44 40 32 27 31 34 38 34 35 41 39 40 37 31 23 22 21 20 18 17 15 13 13 14 15 13 10 7 5 9 28 39 35 35 22 19 34 35 48
45 44 44 42 39 37 38 29 27 30 39 36 26 37 41 38 37 37 33 32 31 33 31 30 28 27 23 23 18 18 10 7 13 13 28 51 14 16 10 28 30 32 35
42 43 43 42 39 36 32 32 27 31 33 40 31 24 34 34 34 36 40 36 29 34 35 32 36 31 28 22 18 19 18 15 20 26 23 11 8 4 6 21 21 22 29
43 46 48 47 42 36 32 29 30 32 31 33 34 26 20 24 31 32 26 31 31 31 37 26 24 26 26 28 19 12 6 2 10 9 6 8 6 3 9 23 20 17 24
43 47 50 51 47 40 34 31 33 30 34 36 34 36 31 27 23 29 30 27 27 23 17 16 22 14 16 17 13 11 8 4 9 10 7 11 12 11 8 12 13 16 18
41 44 46 50 52 49 43 38 36 38 44 47 51 51 51 54 50 44 43 44 37 35 26 22 15 13 12 12 8 6 10 8 10 12 15 15 16 12 12 16 19 18 21
39 41 43 44 47 50 52 53 51 48 47 52 55 58 58 60 58 55 53 52 50 47 46 42 33 23 17 10 3 7 12 13 9 7 8 9 13 15 14 16 18 23 29
37 39 41 43 45 46 47 49 50 51 52 53 53 55 56 54 53 53 51 50 48 47 48 44 34 24 20 15 11 9 8 7 7 6 4 4 3 3 6 11 17 25 31
34 35 37 39 41 43 44 46 47 48 50 51 52 52 51 50 50 50 49 49 49 50 50 49 42 34 27 24 24 25 24 23 22 20 18 14 12 7 5 3 6 10 15
31 32 34 35 37 38 40 41 42 44 46 47 48 49 50 50 50 50 49 49 50 52 52 54 50 44 36 31 28 28 29 29 28 26 24 20 15 11 7 7 8 11 14
27 29 30 31 33 35 37 38 39 41 44 46 48 48 49 49 50 50 49 49 51 52 53 59 56 51 43 37 34 32 31 30 30 28 24 18 13 8 5 3 4 5 6
25 27 28 29 30 32 33 36 39 41 42 43 45 46 48 49 50 52 52 53 54 55 56 60 62 56 49 42 39 39 38 38 38 39 45 50 54 57 60 62 62 61 59
23 24 26 27 28 30 32 35 37 39 40 41 42 44 47 48 48 48 48 50 54 57 59 61 66 62 56 50 48 48 47 51 59 64 67 66 64 64 63 63 61 59 56
20 21 23 25 27 29 31 33 35 36 37 39 39 41 44 43 42 43 44 48 52 56 58 61 66 67 64 59 54 53 55 60 58 58 58 62 62 59 57 56 55 53 51
18 19 22 24 26 28 30 31 32 33 33 34 37 40 39 38 39 40 42 44 48 52 56 59 64 68 68 64 58 58 62 60 54 56 58 57 56 52 51 52 51 48 47
17 18 20 23 25 28 29 30 28 29 30 33 36 35 37 37 39 40 41 42 45 48 52 55 59 64 67 64 60 56 55 55 56 55 54 53 53 53 53 51 49 48 50
16 17 19 21 24 26 27 26 25 26 28 31 33 34 36 37 38 39 40 42 43 45 48 51 55 58 62 62 60 56 55 53 52 54 57 55 53 55 55 56 58 54 51
15 17 18 20 22 23 23 23 23 23 25 28 32 34 36 38 39 40 40 40 42 43 45 47 50 53 56 58 56 56 54 52 48 48 51 54 55 52 51 52 51 50 52
15 18 18 20 20 20 20 20 20 21 22 27 31 33 36 38 39 41 41 41 41 42 43 44 46 48 50 52 54 54 49 48 47 45 45 45 46 45 45 45 45 44 45
15 18 19 19 18 18 18 18 18 19 21 25 28 31 33 36 38 40 41 42 41 41 41 42 43 44 45 46 49 50 52 51 46 42 41 43 44 44 45 47 48 47 45
Wind_Direction
14 14 15 10 12 9 4 4 3 352 342 325 312 294 278 280 272 272 283 268 258 249 247 247 247 246 246 248 246 244 243 245 238 236 236 237 238 238 237 235 234 236 238
11 8 10 13 20 22 18 17 17 16 12 0 342 310 299 284 269 284 311 275 253 252 245 241 241 241 241 240 237 241 240 241 238 232 237 233 232 236 238 238 237 238 240
9 7 8 10 14 28 29 24 27 27 22 21 18 12 346 329 247 350 341 354 257 240 238 237 236 235 231 236 232 231 234 235 241 244 233 232 230 230 230 233 233 238 236
16 12 7 4 3 13 21 23 29 30 32 37 34 37 49 49 47 334 6 356 31 249 232 231 229 228 227 228 229 230 229 231 237 253 233 223 218 216 216 216 224 238 233
22 17 16 12 7 5 8 18 21 32 35 37 42 47 51 58 58 43 23 20 66 60 113 144 189 213 228 236 236 235 229 226 234 249 222 205 180 166 191 204 206 223 222
22 22 24 21 16 10 11 21 22 28 34 39 44 53 56 57 57 61 65 61 72 103 136 166 163 139 160 186 242 221 222 230 238 228 211 195 175 176 175 192 210 219 217
19 18 18 20 22 20 18 20 23 26 25 33 48 57 58 60 60 60 65 71 75 82 92 100 105 110 120 131 124 122 140 121 155 192 188 188 175 177 184 187 184 187 201
14 15 16 17 18 20 21 29 29 28 28 29 47 57 62 65 70 69 65 74 83 91 92 94 99 99 101 105 105 95 65 117 97 180 176 176 185 246 178 191 192 198 190
17 20 23 21 20 23 27 38 36 36 27 31 41 59 59 60 63 59 55 60 81 92 80 88 90 102 86 90 102 111 108 96 122 166 188 194 216 114 235 209 193 201 208
29 29 30 28 28 29 34 43 38 34 31 44 51 50 46 49 53 54 52 56 57 68 68 68 83 82 77 100 96 72 126 216 192 113 123 167 140 134 179 205 216 225 225
35 35 35 35 34 36 39 43 45 46 50 50 53 63 54 53 62 61 58 53 49 40 58 54 65 92 71 94 103 105 135 229 183 231 230 199 238 248 192 192 200 219 228
33 34 36 39 42 44 47 53 58 64 67 76 79 77 73 73 73 72 66 64 67 70 74 74 86 82 90 138 202 209 204 224 226 230 211 214 221 204 223 229 240 240 238
35 38 41 44 48 53 59 65 71 77 68 72 75 76 74 71 70 69 67 65 62 58 55 53 54 59 62 69 134 180 188 186 189 177 188 202 212 224 233 245 247 251 250
39 43 46 50 53 57 61 66 70 72 71 72 72 70 69 69 66 64 62 61 59 56 56 55 52 42 42 57 76 84 81 69 67 58 45 28 352 316 288 270 264 262 259
45 48 52 56 59 62 64 68 69 69 70 69 67 66 66 65 64 62 60 58 55 52 50 50 51 54 60 66 70 76 80 78 74 79 81 77 73 59 30 332 289 274 268
50 52 54 57 60 61 64 66 67 68 68 69 69 68 66 64 63 61 59 56 54 53 50 49 47 54 63 70 74 75 75 78 77 71 61 52 43 30 7 334 308 292 286
54 53 53 56 59 63 67 68 70 71 72 70 70 69 67 65 62 60 58 55 53 51 48 50 48 52 62 69 74 79 83 81 73 64 55 48 41 30 15 346 303 277 273
58 58 59 61 63 66 68 71 73 72 72 72 72 70 68 67 65 63 60 57 54 51 49 50 51 53 62 69 75 81 85 80 73 74 79 81 82 84 85 86 86 86 87
64 65 65 64 65 69 71 73 74 76 76 74 70 71 71 67 63 61 59 57 54 52 49 49 51 54 59 68 77 83 81 83 87 88 90 86 84 82 82 82 83 83 84
71 70 69 67 70 72 75 78 79 79 77 77 76 72 68 64 62 60 58 57 55 54 51 49 51 53 59 67 76 81 87 88 90 89 88 83 79 79 78 75 73 74 76
77 76 76 77 75 77 82 84 85 82 81 79 74 68 65 62 60 59 58 57 57 56 55 53 54 56 61 67 78 86 94 93 86 88 84 79 75 74 72 73 74 75 75
87 86 87 86 84 83 89 91 87 85 82 76 69 66 64 62 61 59 59 59 59 60 59 58 57 59 64 68 74 83 91 95 92 88 82 80 79 79 78 78 76 73 75
100 101 97 97 96 93 94 94 89 85 78 73 71 67 65 63 61 60 59 60 61 62 63 63 61 62 66 71 72 78 87 91 88 85 83 83 84 84 79 75 74 75 75
114 114 109 110 106 103 100 96 93 85 77 74 71 67 64 63 62 61 61 62 62 63 64 66 67 65 65 68 74 77 80 78 83 83 78 80 85 81 78 77 75 73 70
131 129 125 121 115 110 107 102 95 87 80 75 71 67 65 64 63 62 62 63 64 65 66 67 68 69 68 68 70 74 80 79 75 79 79 75 76 79 75 71 70 70 70
148 144 139 134 127 122 115 109 102 94 86 79 75 72 69 67 64 62 62 64 64 66 67 67 69 70 71 71 71 71 73 75 77 77 75 74 75 75 72 72 73 72 70